Location: Bjelajci
(45.0103°N, 16.1758°E)
Time: 08:28:23
(UTC+00:00)

Cosmos 1464 Rocket - Pass Details

Date: 14 July 2020
Orbit: 951 x 1002 km, 82.9° (Epoch: 07 August)

Event Time Altitude Azimuth Distance (km) Brightness Sun altitude
Exits shadow 01:59:22 - 179° (S) 3,225 6.3 -12.0°
Reaches altitude 10° 02:00:35 10° 179° (S) 2,767 6.0 -11.9°
Maximum altitude 02:06:56 75° 95° (E) 1,039 4.3 -11.1°
Drops below altitude 10° 02:13:17 10° 11° (NNE) 2,772 7.3 -10.3°
Sets 02:15:49 0° 10° (N) 3,720 8.0 -10.0°
